Tillbaka till svenska Fidonet
English   Information   Debug  
FILM   0/18
FNEWS_PUBLISH   4926
FN_SYSOP   42201
FN_SYSOP_OLD1   71952
FTP_FIDO   0/2
FTSC_PUBLIC   0/13972
FUNNY   0/4886
GENEALOGY.EUR   0/71
GET_INFO   105
GOLDED   0/408
HAM   3885/16660
HOLYSMOKE   0/6791
HOT_SITES   0/1
HTMLEDIT   0/71
HUB203   466
HUB_100   264
HUB_400   39
HUMOR   0/29
IC   0/2851
INTERNET   0/424
INTERUSER   0/3
IP_CONNECT   719
JAMNNTPD   0/233
JAMTLAND   0/47
KATTY_KORNER   0/41
LAN   0/16
LINUX-USER   0/19
LINUXHELP   0/1155
LINUX   0/22300
LINUX_BBS   0/957
mail   18.68
mail_fore_ok   249
MENSA   0/341
MODERATOR   0/102
MONTE   0/992
MOSCOW_OKLAHOMA   0/1245
MUFFIN   0/783
MUSIC   0/321
N203_STAT   938
N203_SYSCHAT   313
NET203   321
NET204   69
NET_DEV   0/10
NORD.ADMIN   0/101
NORD.CHAT   0/2572
NORD.FIDONET   189
NORD.HARDWARE   0/28
NORD.KULTUR   0/114
NORD.PROG   0/32
NORD.SOFTWARE   0/88
NORD.TEKNIK   0/58
NORD   0/453
OCCULT_CHAT   0/93
OS2BBS   0/787
OS2DOSBBS   0/580
OS2HW   0/42
OS2INET   0/37
OS2LAN   0/134
OS2PROG   0/36
OS2REXX   0/113
OS2USER-L   207
OS2   0/4830
OSDEBATE   6249/18996
PASCAL   0/490
PERL   0/457
PHP   0/45
POINTS   0/405
POLITICS   0/29554
POL_INC   0/14731
PSION   103
R20_ADMIN   1133
R20_AMATORRADIO   0/2
R20_BEST_OF_FIDONET   16
R20_CHAT   0/896
R20_DEPP   0/3
R20_DEV   400
R20_ECHO2   1830
R20_ECHOPRES   0/35
R20_ESTAT   0/719
R20_FIDONETPROG...
...RAM.MYPOINT
  0/2
R20_FIDONETPROGRAM   0/22
R20_FIDONET   0/248
R20_FILEFIND   0/24
R20_FILEFOUND   0/22
R20_HIFI   0/3
R20_INFO2   3723
R20_INTERNET   0/12940
R20_INTRESSE   0/60
R20_INTR_KOM   0/99
R20_KANDIDAT.CHAT   42
R20_KANDIDAT   28
R20_KOM_DEV   112
R20_KONTROLL   0/13360
R20_KORSET   0/18
R20_LOKALTRAFIK   0/24
R20_MODERATOR   0/1852
R20_NC   76
R20_NET200   245
R20_NETWORK.OTH...
...ERNETS
  0/13
R20_OPERATIVSYS...
...TEM.LINUX
  0/44
R20_PROGRAMVAROR   0/1
R20_REC2NEC   534
R20_SFOSM   0/341
R20_SF   0/108
R20_SPRAK.ENGLISH   0/1
R20_SQUISH   107
R20_TEST   2
R20_WORST_OF_FIDONET   20
RAR   0/9
RA_MULTI   106
RA_UTIL   0/162
REGCON.EUR   0/2068
REGCON   0/13
SCIENCE   0/1206
SF   0/239
SHAREWARE_SUPPORT   0/5146
SHAREWRE   0/14
SIMPSONS   0/169
STATS_OLD1   0/2539.065
STATS_OLD2   0/2530
STATS_OLD3   0/2395.095
STATS_OLD4   0/1692.25
SURVIVOR   0/495
SYSOPS_CORNER   0/3
SYSOP   0/84
TAGLINES   0/112
TEAMOS2   0/4530
TECH   0/2617
TEST.444   0/105
TRAPDOOR   0/19
TREK   0/755
TUB   0/290
UFO   0/40
UNIX   0/1316
USA_EURLINK   0/102
USR_MODEMS   0/1
VATICAN   0/2740
VIETNAM_VETS   0/14
VIRUS   0/378
VIRUS_INFO   0/201
VISUAL_BASIC   0/473
WHITEHOUSE   0/5187
WIN2000   0/101
WIN32   0/30
WIN95   0/4291
WIN95_OLD1   0/70272
WINDOWS   0/1517
WWB_SYSOP   0/419
WWB_TECH   0/810
ZCC-PUBLIC   0/1
ZEC   4

 
4DOS   0/134
ABORTION   0/7
ALASKA_CHAT   0/506
ALLFIX_FILE   0/1313
ALLFIX_FILE_OLD1   0/7997
ALT_DOS   0/152
AMATEUR_RADIO   0/1039
AMIGASALE   0/14
AMIGA   0/331
AMIGA_INT   0/1
AMIGA_PROG   0/20
AMIGA_SYSOP   0/26
ANIME   0/15
ARGUS   0/924
ASCII_ART   0/340
ASIAN_LINK   0/651
ASTRONOMY   0/417
AUDIO   0/92
AUTOMOBILE_RACING   0/105
BABYLON5   0/17862
BAG   135
BATPOWER   0/361
BBBS.ENGLISH   0/382
BBSLAW   0/109
BBS_ADS   0/5290
BBS_INTERNET   0/507
BIBLE   0/3563
BINKD   0/1119
BINKLEY   0/215
BLUEWAVE   0/2173
CABLE_MODEMS   0/25
CBM   0/46
CDRECORD   0/66
CDROM   0/20
CLASSIC_COMPUTER   0/378
COMICS   0/15
CONSPRCY   0/899
COOKING   41444
COOKING_OLD1   0/24719
COOKING_OLD2   0/40862
COOKING_OLD3   0/37489
COOKING_OLD4   0/35496
COOKING_OLD5   9370
C_ECHO   0/189
C_PLUSPLUS   0/31
DIRTY_DOZEN   0/201
DOORGAMES   0/2285
DOS_INTERNET   0/196
duplikat   6102
ECHOLIST   0/18295
EC_SUPPORT   0/318
ELECTRONICS   0/359
ELEKTRONIK.GER   1534
ENET.LINGUISTIC   0/13
ENET.POLITICS   0/4
ENET.SOFT   0/11701
ENET.SYSOP   34296
ENET.TALKS   0/32
ENGLISH_TUTOR   0/2000
EVOLUTION   0/1335
FDECHO   0/217
FDN_ANNOUNCE   0/7068
FIDONEWS   25062
FIDONEWS_OLD1   0/49742
FIDONEWS_OLD2   0/35949
FIDONEWS_OLD3   0/30874
FIDONEWS_OLD4   0/37224
FIDO_SYSOP   12922
FIDO_UTIL   0/180
FILEFIND   0/209
FILEGATE   0/212
Möte HAM, 16660 texter
 lista första sista föregående nästa
Text 2896, 787 rader
Skriven 2009-04-09 23:00:20 av Amsat List (1:323/120.0)
Ärende: [keps]  orb09099.amsa
=============================
[keps]  orb09099.amsa

Return-Path: <keps-bounces@amsat.org>
X-Rcpt: craig.healy@chowda.com
X-UIDL: 1239374255.22073

SB KEPS @ AMSAT  $ORB09099.O
Orbital Elements  09099.OSCAR

HR AMSAT ORBITAL ELEMENTS FOR OSCAR SATELLITES
FROM WA5QGD FORT WORTH,TX April 9, 2009
Send Subscribe/unsubscribe to KEPS at 
http://www.amsat.org/mailman/listinfo/keps
BID: ORB09099.O
TO ALL RADIO AMATEURS BT

Satellite: AO-07
Catalog number: 07530
Epoch time:      09099.61489822
Element set:     447
Inclination:      101.4330 deg
RA of node:       126.7955 deg
Eccentricity:    0.0012111
Arg of perigee:   043.8428 deg
Mean anomaly:     316.3602 deg
Mean motion:   12.53575481 rev/day
Decay rate:       -2.7e-07 rev/day^2
Epoch rev:           57412
Checksum:              288

Satellite: AO-10
Catalog number: 14129
Epoch time:      09097.31715068
Element set:    0642
Inclination:      025.9513 deg
RA of node:       163.0747 deg
Eccentricity:    0.5987444
Arg of perigee:   212.2506 deg
Mean anomaly:     090.3894 deg
Mean motion:   02.05870720 rev/day
Decay rate:      -1.43e-06 rev/day^2
Epoch rev:           19416
Checksum:              302

Satellite: UO-11
Catalog number: 14781
Epoch time:      09098.69935427
Element set:     931
Inclination:      098.1151 deg
RA of node:       142.5190 deg
Eccentricity:    0.0008749
Arg of perigee:   193.6658 deg
Mean anomaly:     166.4323 deg
Mean motion:   14.79704487 rev/day
Decay rate:       2.67e-06 rev/day^2
Epoch rev:           34755
Checksum:              345

Satellite: RS-15
Catalog number: 23439
Epoch time:      09098.88904555
Element set:    0217
Inclination:      064.8137 deg
RA of node:       016.8754 deg
Eccentricity:    0.0146929
Arg of perigee:   064.9485 deg
Mean anomaly:     296.6607 deg
Mean motion:   11.27553244 rev/day
Decay rate:       -3.9e-07 rev/day^2
Epoch rev:           58830
Checksum:              352

Satellite: FO-29
Catalog number: 24278
Epoch time:      09098.70976040
Element set:    0044
Inclination:      098.5634 deg
RA of node:       342.0528 deg
Eccentricity:    0.0350720
Arg of perigee:   170.2742 deg
Mean anomaly:     190.5425 deg
Mean motion:   13.52941896 rev/day
Decay rate:       -6.2e-07 rev/day^2
Epoch rev:           62435
Checksum:              314

Satellite: SO-33
Catalog number: 25509
Epoch time:      09098.29947517
Element set:    0428
Inclination:      031.4290 deg
RA of node:       087.6666 deg
Eccentricity:    0.0354095
Arg of perigee:   087.4867 deg
Mean anomaly:     276.6206 deg
Mean motion:   14.28249091 rev/day
Decay rate:       1.47e-06 rev/day^2
Epoch rev:           54583
Checksum:              351

Satellite: AO-40
Catalog number: 26609
Epoch time:      09096.92754300
Element set:     212
Inclination:      009.1261 deg
RA of node:       024.6782 deg
Eccentricity:    0.7961427
Arg of perigee:   192.2223 deg
Mean anomaly:     117.8823 deg
Mean motion:   01.25583575 rev/day
Decay rate:      -4.38e-06 rev/day^2
Epoch rev:            3873
Checksum:              309

Satellite: RS-22
Catalog number: 27939
Epoch time:      09098.72553134
Element set:    0761
Inclination:      097.9562 deg
RA of node:       336.0869 deg
Eccentricity:    0.0013615
Arg of perigee:   356.6415 deg
Mean anomaly:     003.4694 deg
Mean motion:   14.63306275 rev/day
Decay rate:        9.9e-07 rev/day^2
Epoch rev:           29541
Checksum:              336

Satellite: VO-52
Catalog number: 28650
Epoch time:      09098.68911421
Element set:     198
Inclination:      097.7491 deg
RA of node:       162.5484 deg
Eccentricity:    0.0026046
Arg of perigee:   255.6570 deg
Mean anomaly:     104.1745 deg
Mean motion:   14.81571095 rev/day
Decay rate:       3.93e-06 rev/day^2
Epoch rev:           21235
Checksum:              320

Satellite: PO-63
Catalog number: 29712
Epoch time:      09099.75656958
Element set:     386
Inclination:      097.8355 deg
RA of node:       157.7823 deg
Eccentricity:    0.0015017
Arg of perigee:   134.1491 deg
Mean anomaly:     226.0957 deg
Mean motion:   14.80498287 rev/day
Decay rate:       4.69e-06 rev/day^2
Epoch rev:           12134
Checksum:              354

/EX
SB KEPS @ AMSAT  $ORB09099.D
Orbital Elements  09099.MICROS

HR AMSAT ORBITAL ELEMENTS FOR THE MICROSATS
FROM WA5QGD FORT WORTH,TX April 9, 2009
Send Subscribe/unsubscribe to KEPS at 
http://www.amsat.org/mailman/listinfo/keps
BID: ORB09099.D
TO ALL RADIO AMATEURS BT

Satellite: AO-16
Catalog number: 20439
Epoch time:      09098.67213150
Element set:    0577
Inclination:      098.2721 deg
RA of node:       070.2613 deg
Eccentricity:    0.0011452
Arg of perigee:   022.4713 deg
Mean anomaly:     337.6961 deg
Mean motion:   14.31820460 rev/day
Decay rate:        6.0e-08 rev/day^2
Epoch rev:           00320
Checksum:              262

Satellite: LO-19
Catalog number: 20442
Epoch time:      09098.67063769
Element set:     496
Inclination:      098.2367 deg
RA of node:       077.7895 deg
Eccentricity:    0.0012261
Arg of perigee:   019.6364 deg
Mean anomaly:     340.5297 deg
Mean motion:   14.32056647 rev/day
Decay rate:        1.4e-07 rev/day^2
Epoch rev:             336
Checksum:              326

Satellite: AO-27
Catalog number: 22825
Epoch time:      09098.76957132
Element set:    0217
Inclination:      098.4294 deg
RA of node:       054.4017 deg
Eccentricity:    0.0009252
Arg of perigee:   106.5651 deg
Mean anomaly:     253.6568 deg
Mean motion:   14.29262615 rev/day
Decay rate:        1.7e-07 rev/day^2
Epoch rev:           80999
Checksum:              330

